Погода в Анеевой

Россия / Ханты-Мансийский автономный округ - Югра     63°08′56″N   63°58′43″E
темп.,
°C
ветер,
м/с
пор.,
м/с
влажн.,
%
обл.,
%
осадки,
мм/ч
давл.,
гПа
погр.,
м
26 февраля, пт
пт2623:00−26ю1110090 0.0 102519
02:00−27ююз1110055 0.0 102519
05:00−27ююз129928 0.0 102519
08:00−28ююз12990 0.0 102519
11:00−23ю22970 0.0 1025141
14:00−19ююв239656 0.0 1024223
17:00−20ююв249872 0.0 1024110
20:00−21ююв239995 0.0 102473
27 февраля, сб
сб2723:00−22ю259797 0.0 102491
02:00−24ююв239785 0.0 102366
05:00−25ююв239874 0.0 102368
08:00−26ююв249973 0.0 102386
11:00−22ююв359773 0.0 1023224
14:00−20ююв359572 0.0 1023288
17:00−19юв269673 0.0 1023210
20:00−23юв269936 0.0 1023109
28 февраля, вс
вс2823:00−25ююв259822 0.0 1023102
02:00−27ююв23970 0.0 102359
05:00−29ююв23980 0.0 102342
08:00−30ююв22980 0.0 102226
11:00−25ююв24960 0.0 1021202
14:00−22юв23957 0.0 1021237
17:00−23юв129614 0.0 102020
20:00−26юв12950 0.0 102019
1 марта, пн
пн123:00−27ююв11960 0.0 102019
02:00−27ю12980 0.0 101919
05:00−27ю12980 0.0 101819
08:00−27ю229928 0.0 101723
11:00−21ю249746 0.0 1016183
14:00−16ю379567 0.0 1014334
17:00−14ю379583 0.1 1012292
20:00−15ююз3109594 0.0 1009276
2 марта, вт
вт223:00−14ююз4119297 0.0 1006424
02:00−12ююз41386100 0.0 1003522
05:00−12ююз51387100 0.0 1001522
08:00−12ююз51293100 0.3 998536
11:00−10ююз51092100 0.6 997652
14:00−9ююз4992100 0.4 996711
17:00−8юз4993100 0.6 996709
20:00−10юз399494 0.3 995430